星链-36973(STARLINK-36973)

导读

STARLINK-36973(NORAD编号68078)是SpaceX星链星座的低轨通信卫星,属于星链全球互联网组网的组成部分。星链项目计划在近地轨道部署超4万颗卫星,为全球偏远地区、海洋等区域提供高速互联网接入。该卫星采用成熟的星链技术,配备相控阵天线与激光星间链路,可实现低延迟、高带宽数据传输。它随猎鹰9号火箭发射入轨,运行于近地轨道,通过星间链路构建空间传输网络,支撑星链星座的全球覆盖能力,目前在轨正常工作,服务于星链的通信服务体系。

Basic Information
目录编号:
68078
目录名称:
STARLINK-36973
国际标识:
2026-042K
轨道中心:
EARTH
卫星名称:
星链-36973
卫星全名:
星链-36973(STARLINK-36973)
卫星状态:
在轨 (已飞行185 天)
发射日期:
2026-03-04 UTC
国别 :
美国 (US)
星等 :
--
Orbit Information
数据来源 国际轨道数据
星历时间: 2026-09-05T05:06:49+0800
16小时前
查看轨道信息
半长轴: 6840.846km
偏心率: 0.0001039
轨道倾角: 53.161°
近地点辐角 82.792°
升交点赤经 62.587°
平近点角 277.320°
近地点: 461.998km
远地点: 463.42km
周期: 93.848分钟
每日圈数: 15.343983
Detailed Information
固有亮度:
5
最大亮度:
2.5
卫星平台:
Starlink V1.0
覆盖范围:
全球
运营商:
太空探索技术公司
运营商所在国:
美国
制造商(研发单位):
太空探索技术公司
制造商所在国:
美国
使用方式:
暂无
Satellite Introduction
Starlink 计划是 SpaceX 推出的全球卫星互联网项目,通过发射低轨道卫星,为全球尤其是偏远地区提供高速、低延迟的互联网服务。自 2019 年起,Starlink 已部署数千颗卫星,旨在缩小全球数字鸿沟,推动互联网普及。该项目还为军事、航空等行业提供通信支持,带来广泛经济效益。
2D Orbit Map
3D Orbit Map
Orbit Altitude Analysis Chart
Orbit Inclination Analysis Chart
Orbit Comprehensive Analysis Chart
View Comprehensive Chart
Conjunction Data List
Event ID Objects TCA Miss Dist (km) Collision Risk Probability Collision Risk Index (CRI) Action
CDM_260906-121305-407606-807821
2026-09-06T
12:13:49+0000
2.673 km
极远距离
1.400466E-6 低风险 0.38
CDM_260906-081705-177706-807821
2026-09-06T
08:17:39+0000
2.932 km
极远距离
1.234914E-6 低风险 0.37
CDM_260903-043705-480706-807821
2026-09-03T
04:37:53+0000
2.858 km
极远距离
1.20606E-6 低风险 0.37
CDM_260907-211806-611206-807821
2026-09-07T
21:18:34+0000
2.474 km
极远距离
1.171889E-6 低风险 0.36